• In Uzbekistan
  • List of Countries
  • For 7 days
  • Water Temperature
  • Satellite Maps
  • Weather Map
  • Weather Widgets
  • user-avatar
    Login

    Hourly Weather Villefontaine

    Today, 24 November, Friday

    Time Temperature Precipitation Wind Pressure Humidity
    00:00 +10°C° 0 mm 3 mps 741 mmHg 87%
    01:00 +9°C° 0 mm 3 mps 741 mmHg 88%
    02:00 +9°C° 0 mm 3 mps 741 mmHg 88%
    03:00 +9°C° 0 mm 3 mps 741 mmHg 88%
    04:00 +9°C° 0 mm 3 mps 741 mmHg 88%
    05:00 +9°C° 0 mm 3 mps 741 mmHg 87%
    06:00 +8°C° 0 mm 4 mps 741 mmHg 80%
    07:00 +10°C° 0 mm 4 mps 741 mmHg 78%
    08:00 +11°C° 0 mm 4 mps 741 mmHg 76%
    09:00 +12°C° 0 mm 4 mps 741 mmHg 74%
    10:00 +13°C° 0 mm 4 mps 740 mmHg 71%
    11:00 +14°C° 0 mm 4 mps 740 mmHg 68%
    12:00 +15°C° 0 mm 4 mps 740 mmHg 65%
    13:00 +16°C° 0.1 mm 3 mps 740 mmHg 69%
    14:00 +14°C° 0.1 mm 3 mps 740 mmHg 74%
    15:00 +14°C° 0.1 mm 2 mps 740 mmHg 78%
    16:00 +14°C° 0.2 mm 2 mps 740 mmHg 81%
    17:00 +13°C° 0.2 mm 2 mps 740 mmHg 84%
    18:00 +12°C° 0.2 mm 2 mps 740 mmHg 87%
    19:00 +12°C° 0 mm 2 mps 740 mmHg 88%
    20:00 +10°C° 0 mm 2 mps 739 mmHg 88%
    21:00 +10°C° 0 mm 2 mps 739 mmHg 88%
    22:00 +10°C° 0 mm 3 mps 739 mmHg 87%
    23:00 +10°C° 0 mm 3 mps 738 mmHg 87%

    Tomorrow, 25 November, Saturday

    Time Temperature Precipitation Wind Pressure Humidity
    00:00 +10°C° 0 mm 3 mps 738 mmHg 86%
    01:00 +10°C° 0.1 mm 4 mps 737 mmHg 83%
    02:00 +11°C° 0.1 mm 4 mps 737 mmHg 81%
    03:00 +10°C° 0.1 mm 5 mps 736 mmHg 79%
    04:00 +11°C° 2 mm 4 mps 736 mmHg 82%
    05:00 +11°C° 2 mm 4 mps 736 mmHg 85%
    06:00 +10°C° 2 mm 4 mps 737 mmHg 89%
    07:00 +10°C° 2.3 mm 3 mps 737 mmHg 89%
    08:00 +10°C° 2.3 mm 2 mps 738 mmHg 88%
    09:00 +9°C° 2.3 mm 2 mps 739 mmHg 88%
    10:00 +10°C° 0.3 mm 2 mps 739 mmHg 83%
    11:00 +10°C° 0.3 mm 2 mps 740 mmHg 77%
    12:00 +12°C° 0.3 mm 2 mps 740 mmHg 72%
    13:00 +10°C° 0.2 mm 2 mps 740 mmHg 73%
    14:00 +10°C° 0.2 mm 2 mps 740 mmHg 74%
    15:00 +9°C° 0.2 mm 2 mps 740 mmHg 76%
    16:00 +8°C° 0.1 mm 2 mps 741 mmHg 78%
    17:00 +7°C° 0.1 mm 2 mps 741 mmHg 81%
    18:00 +5°C° 0.1 mm 3 mps 742 mmHg 84%
    19:00 +5°C° 0.1 mm 3 mps 743 mmHg 85%
    20:00 +4°C° 0.1 mm 3 mps 743 mmHg 86%
    21:00 +4°C° 0.1 mm 3 mps 744 mmHg 88%
    22:00 +3°C° 0.2 mm 3 mps 744 mmHg 87%
    23:00 +3°C° 0.2 mm 3 mps 745 mmHg 87%

    Day after tomorrow, 26 November, Sunday

    Time Temperature Precipitation Wind Pressure Humidity
    00:00 +1°C° 0.2 mm 4 mps 745 mmHg 87%
    01:00 +2°C° 0.1 mm 3 mps 745 mmHg 89%
    02:00 +1°C° 0.1 mm 3 mps 746 mmHg 90%
    03:00 0°C° 0.1 mm 3 mps 746 mmHg 91%
    04:00 +1°C° 0 mm 2 mps 746 mmHg 92%
    05:00 +1°C° 0 mm 2 mps 746 mmHg 93%
    06:00 -1°C° 0 mm 2 mps 747 mmHg 94%
    07:00 +1°C° 0 mm 2 mps 747 mmHg 90%
    08:00 +1°C° 0 mm 3 mps 747 mmHg 86%
    09:00 +1°C° 0 mm 3 mps 748 mmHg 82%
    10:00 +2°C° 0 mm 3 mps 748 mmHg 77%
    11:00 +3°C° 0 mm 4 mps 748 mmHg 72%
    12:00 +4°C° 0 mm 4 mps 747 mmHg 67%
    13:00 +4°C° 0 mm 4 mps 748 mmHg 68%
    14:00 +4°C° 0 mm 4 mps 748 mmHg 69%
    15:00 +4°C° 0 mm 4 mps 748 mmHg 70%
    16:00 +2°C° 0 mm 3 mps 748 mmHg 76%
    17:00 +1°C° 0 mm 3 mps 749 mmHg 82%
    18:00 0°C° 0 mm 3 mps 749 mmHg 88%
    19:00 0°C° 0 mm 3 mps 750 mmHg 88%
    20:00 +1°C° 0 mm 2 mps 750 mmHg 89%
    21:00 -1°C° 0 mm 2 mps 750 mmHg 90%
    22:00 -1°C° 0 mm 2 mps 750 mmHg 91%
    23:00 -1°C° 0 mm 2 mps 750 mmHg 91%

    27 November, Monday

    Time Temperature Precipitation Wind Pressure Humidity
    00:00 -1°C° 0 mm 2 mps 750 mmHg 92%
    01:00 -1°C° 0 mm 2 mps 750 mmHg 92%
    02:00 -1°C° 0 mm 2 mps 750 mmHg 92%
    03:00 -2°C° 0 mm 2 mps 750 mmHg 92%
    04:00 -2°C° 0 mm 2 mps 750 mmHg 92%
    05:00 -2°C° 0 mm 2 mps 750 mmHg 92%
    06:00 -2°C° 0 mm 2 mps 750 mmHg 92%
    07:00 -1°C° 0 mm 2 mps 750 mmHg 87%
    08:00 +1°C° 0 mm 2 mps 750 mmHg 83%
    09:00 +2°C° 0 mm 2 mps 750 mmHg 78%
    10:00 +3°C° 0 mm 2 mps 749 mmHg 72%
    11:00 +3°C° 0 mm 3 mps 749 mmHg 66%
    12:00 +4°C° 0 mm 3 mps 748 mmHg 60%
    13:00 +5°C° 0 mm 2 mps 748 mmHg 62%
    14:00 +5°C° 0 mm 2 mps 748 mmHg 64%
    15:00 +4°C° 0 mm 2 mps 747 mmHg 66%
    16:00 +3°C° 0 mm 2 mps 747 mmHg 72%
    17:00 +3°C° 0 mm 1 mps 747 mmHg 79%
    18:00 +1°C° 0 mm 1 mps 747 mmHg 85%
    19:00 +1°C° 0 mm 1 mps 747 mmHg 85%
    20:00 0°C° 0 mm 0 mps 747 mmHg 86%
    21:00 0°C° 0 mm 0 mps 747 mmHg 86%
    22:00 0°C° 0 mm 0 mps 747 mmHg 85%
    23:00 0°C° 0 mm 1 mps 746 mmHg 85%

    28 November, Tuesday

    Time Temperature Precipitation Wind Pressure Humidity
    00:00 0°C° 0 mm 1 mps 745 mmHg 84%
    01:00 0°C° 0 mm 1 mps 745 mmHg 83%
    02:00 0°C° 0 mm 1 mps 744 mmHg 82%
    03:00 0°C° 0 mm 1 mps 744 mmHg 81%
    04:00 0°C° 0 mm 1 mps 743 mmHg 78%
    05:00 +1°C° 0 mm 1 mps 743 mmHg 75%
    06:00 +1°C° 0 mm 1 mps 742 mmHg 73%
    07:00 +1°C° 0 mm 2 mps 741 mmHg 66%
    08:00 +3°C° 0 mm 2 mps 741 mmHg 60%
    09:00 +4°C° 0 mm 2 mps 740 mmHg 53%
    10:00 +5°C° 0 mm 3 mps 739 mmHg 50%
    11:00 +6°C° 0 mm 4 mps 738 mmHg 47%
    12:00 +8°C° 0 mm 4 mps 737 mmHg 44%
    13:00 +7°C° 0 mm 4 mps 737 mmHg 48%
    14:00 +7°C° 0 mm 4 mps 736 mmHg 51%
    15:00 +6°C° 0 mm 4 mps 736 mmHg 55%
    16:00 +5°C° 0 mm 4 mps 736 mmHg 60%
    17:00 +3°C° 0 mm 4 mps 736 mmHg 65%
    18:00 +2°C° 0 mm 3 mps 736 mmHg 70%
    19:00 +2°C° 0.3 mm 3 mps 736 mmHg 72%
    20:00 +2°C° 0.3 mm 3 mps 736 mmHg 75%
    21:00 +3°C° 0.3 mm 2 mps 735 mmHg 77%
    22:00 +3°C° 0.9 mm 2 mps 735 mmHg 79%
    23:00 +3°C° 0.9 mm 2 mps 735 mmHg 82%

    29 November, Wednesday

    Time Temperature Precipitation Wind Pressure Humidity
    00:00 +3°C° 0.9 mm 2 mps 734 mmHg 84%
    01:00 +3°C° 0.5 mm 2 mps 734 mmHg 86%
    02:00 +3°C° 0.5 mm 2 mps 734 mmHg 88%
    03:00 +2°C° 0.5 mm 2 mps 733 mmHg 90%
    04:00 +2°C° 0.2 mm 2 mps 733 mmHg 90%
    05:00 +4°C° 0.2 mm 1 mps 733 mmHg 90%
    06:00 +4°C° 0.2 mm 1 mps 733 mmHg 90%
    07:00 +4°C° 0.4 mm 1 mps 733 mmHg 90%
    08:00 +4°C° 0.4 mm 1 mps 733 mmHg 89%
    09:00 +5°C° 0.4 mm 1 mps 733 mmHg 89%
    10:00 +5°C° 0.2 mm 1 mps 733 mmHg 85%
    11:00 +6°C° 0.2 mm 1 mps 732 mmHg 81%
    12:00 +7°C° 0.2 mm 1 mps 732 mmHg 78%
    13:00 +6°C° 0.1 mm 1 mps 732 mmHg 79%
    14:00 +6°C° 0.1 mm 1 mps 731 mmHg 80%
    15:00 +5°C° 0.1 mm 1 mps 731 mmHg 82%
    16:00 +5°C° 0.2 mm 1 mps 731 mmHg 83%
    17:00 +4°C° 0.2 mm 1 mps 731 mmHg 85%
    18:00 +3°C° 0.2 mm 2 mps 732 mmHg 87%
    19:00 +2°C° 0.3 mm 2 mps 732 mmHg 87%
    20:00 +3°C° 0.3 mm 1 mps 732 mmHg 87%
    21:00 +3°C° 0.3 mm 1 mps 732 mmHg 88%
    22:00 +3°C° 0.4 mm 1 mps 732 mmHg 89%
    23:00 +3°C° 0.4 mm 1 mps 732 mmHg 91%
    Show more